When you browse on this site, cookies collect data to enhance your experience and personalize the content and advertising you see.
Visit our Privacy Policy to learn more. By continuing to use the site, you agree to this use of cookies and data.
  • In Hungary
  • List of Countries
  • For 7 days
  • Water Temperature
  • Weather Map
  • News
  • Weather Widgets
  • user-avatar
    Login

    Hourly Weather Garagoa

    Today, 11 December, Wednesday

    Time Temperature Precipitation Wind Pressure Humidity
    00:00 +16°C° 0.2 mm 0 mps 621 mmHg 97%
    01:00 +16°C° 0 mm 1 mps 621 mmHg 96%
    02:00 +16°C° 0 mm 1 mps 621 mmHg 96%
    03:00 +16°C° 0 mm 1 mps 620 mmHg 96%
    04:00 +15°C° 0 mm 1 mps 620 mmHg 96%
    05:00 +16°C° 0 mm 1 mps 621 mmHg 95%
    06:00 +16°C° 0 mm 1 mps 621 mmHg 94%
    07:00 +18°C° 0 mm 1 mps 622 mmHg 93%
    08:00 +20°C° 0 mm 1 mps 623 mmHg 82%
    09:00 +23°C° 0 mm 1 mps 624 mmHg 72%
    10:00 +25°C° 0 mm 1 mps 625 mmHg 61%
    11:00 +25°C° 0.4 mm 1 mps 624 mmHg 65%
    12:00 +25°C° 0.4 mm 2 mps 623 mmHg 69%
    13:00 +25°C° 0.4 mm 2 mps 622 mmHg 72%
    14:00 +24°C° 0.4 mm 1 mps 621 mmHg 77%
    15:00 +23°C° 0.4 mm 1 mps 620 mmHg 82%
    16:00 +22°C° 0.4 mm 1 mps 620 mmHg 87%
    17:00 +21°C° 0.4 mm 1 mps 620 mmHg 90%
    18:00 +18°C° 0.4 mm 0 mps 620 mmHg 94%
    19:00 +17°C° 0.4 mm 0 mps 620 mmHg 97%
    20:00 +17°C° 0.3 mm 0 mps 620 mmHg 97%
    21:00 +17°C° 0.3 mm 0 mps 621 mmHg 96%
    22:00 +17°C° 0.3 mm 0 mps 622 mmHg 96%
    23:00 +16°C° 0.2 mm 0 mps 621 mmHg 96%

    Tomorrow, 12 December, Thursday

    Time Temperature Precipitation Wind Pressure Humidity
    00:00 +18°C° 0.2 mm 1 mps 621 mmHg 95%
    01:00 +18°C° 0.2 mm 1 mps 620 mmHg 95%
    02:00 +16°C° 0 mm 1 mps 620 mmHg 95%
    03:00 +16°C° 0 mm 1 mps 620 mmHg 95%
    04:00 +16°C° 0 mm 1 mps 620 mmHg 95%
    05:00 +16°C° 0 mm 1 mps 620 mmHg 93%
    06:00 +16°C° 0 mm 1 mps 620 mmHg 92%
    07:00 +18°C° 0 mm 1 mps 621 mmHg 91%
    08:00 +20°C° 0 mm 1 mps 622 mmHg 81%
    09:00 +23°C° 0 mm 1 mps 623 mmHg 70%
    10:00 +25°C° 0 mm 1 mps 624 mmHg 60%
    11:00 +25°C° 0.7 mm 1 mps 623 mmHg 70%
    12:00 +24°C° 0.7 mm 1 mps 622 mmHg 79%
    13:00 +23°C° 0.7 mm 1 mps 621 mmHg 89%
    14:00 +22°C° 1.2 mm 1 mps 620 mmHg 91%
    15:00 +22°C° 1.2 mm 1 mps 619 mmHg 92%
    16:00 +19°C° 1.2 mm 0 mps 619 mmHg 94%
    17:00 +18°C° 0.6 mm 0 mps 619 mmHg 95%
    18:00 +18°C° 0.6 mm 0 mps 619 mmHg 97%
    19:00 +17°C° 0.6 mm 0 mps 620 mmHg 98%
    20:00 +17°C° 0.2 mm 0 mps 620 mmHg 98%
    21:00 +18°C° 0.2 mm 1 mps 620 mmHg 97%
    22:00 +18°C° 0.2 mm 1 mps 621 mmHg 97%
    23:00 +16°C° 0.1 mm 1 mps 620 mmHg 97%

    Day after tomorrow, 13 December, Friday

    Time Temperature Precipitation Wind Pressure Humidity
    00:00 +16°C° 0.1 mm 1 mps 620 mmHg 96%
    01:00 +15°C° 0.1 mm 1 mps 619 mmHg 96%
    02:00 +15°C° 0 mm 1 mps 619 mmHg 95%
    03:00 +15°C° 0 mm 2 mps 619 mmHg 95%
    04:00 +14°C° 0 mm 2 mps 619 mmHg 95%
    05:00 +15°C° 0 mm 2 mps 619 mmHg 94%
    06:00 +15°C° 0 mm 1 mps 620 mmHg 92%
    07:00 +16°C° 0 mm 1 mps 620 mmHg 91%
    08:00 +20°C° 0 mm 1 mps 622 mmHg 79%
    09:00 +23°C° 0 mm 1 mps 623 mmHg 67%
    10:00 +26°C° 0 mm 1 mps 624 mmHg 55%
    11:00 +25°C° 0.3 mm 1 mps 623 mmHg 62%
    12:00 +24°C° 0.3 mm 1 mps 622 mmHg 69%
    13:00 +24°C° 0.3 mm 2 mps 621 mmHg 76%
    14:00 +23°C° 1 mm 1 mps 620 mmHg 82%
    15:00 +22°C° 1 mm 1 mps 620 mmHg 88%
    16:00 +21°C° 1 mm 1 mps 619 mmHg 94%
    17:00 +20°C° 0.5 mm 1 mps 619 mmHg 96%
    18:00 +17°C° 0.5 mm 0 mps 620 mmHg 97%
    19:00 +17°C° 0.5 mm 0 mps 620 mmHg 98%
    20:00 +16°C° 0.3 mm 0 mps 620 mmHg 98%
    21:00 +16°C° 0.3 mm 0 mps 621 mmHg 98%
    22:00 +16°C° 0.3 mm 0 mps 621 mmHg 97%
    23:00 +16°C° 0.5 mm 0 mps 621 mmHg 97%

    14 December, Saturday

    Time Temperature Precipitation Wind Pressure Humidity
    00:00 +16°C° 0.5 mm 0 mps 620 mmHg 97%
    01:00 +15°C° 0.5 mm 0 mps 620 mmHg 97%
    02:00 +16°C° 0.1 mm 1 mps 620 mmHg 96%
    03:00 +16°C° 0.1 mm 1 mps 620 mmHg 96%
    04:00 +16°C° 0.1 mm 1 mps 620 mmHg 95%
    05:00 +18°C° 0 mm 1 mps 621 mmHg 94%
    06:00 +18°C° 0 mm 1 mps 621 mmHg 94%
    07:00 +18°C° 0 mm 1 mps 621 mmHg 93%
    08:00 +20°C° 0 mm 1 mps 622 mmHg 82%
    09:00 +23°C° 0 mm 1 mps 623 mmHg 72%
    10:00 +25°C° 0 mm 1 mps 625 mmHg 61%
    11:00 +24°C° 0.6 mm 1 mps 623 mmHg 70%
    12:00 +23°C° 0.6 mm 2 mps 622 mmHg 78%
    13:00 +23°C° 0.6 mm 2 mps 621 mmHg 87%
    14:00 +22°C° 0.8 mm 1 mps 620 mmHg 89%
    15:00 +22°C° 0.8 mm 1 mps 620 mmHg 91%
    16:00 +21°C° 0.8 mm 1 mps 619 mmHg 93%
    17:00 +20°C° 0.4 mm 1 mps 620 mmHg 95%
    18:00 +18°C° 0.4 mm 0 mps 620 mmHg 96%
    19:00 +17°C° 0.4 mm 0 mps 620 mmHg 98%
    20:00 +17°C° 0.5 mm 0 mps 621 mmHg 98%
    21:00 +16°C° 0.5 mm 0 mps 622 mmHg 98%
    22:00 +16°C° 0.5 mm 0 mps 622 mmHg 98%
    23:00 +16°C° 0.5 mm 0 mps 622 mmHg 97%

    15 December, Sunday

    Time Temperature Precipitation Wind Pressure Humidity
    00:00 +16°C° 0.5 mm 0 mps 621 mmHg 97%
    01:00 +16°C° 0.5 mm 0 mps 621 mmHg 97%
    02:00 +16°C° 0.1 mm 0 mps 621 mmHg 96%
    03:00 +16°C° 0.1 mm 1 mps 620 mmHg 96%
    04:00 +16°C° 0.1 mm 1 mps 620 mmHg 96%
    05:00 +18°C° 0 mm 1 mps 621 mmHg 95%
    06:00 +16°C° 0 mm 0 mps 622 mmHg 94%
    07:00 +16°C° 0 mm 0 mps 622 mmHg 93%
    08:00 +20°C° 0.4 mm 1 mps 623 mmHg 92%
    09:00 +21°C° 0.4 mm 1 mps 623 mmHg 90%
    10:00 +22°C° 0.4 mm 1 mps 624 mmHg 88%
    11:00 +22°C° 1.1 mm 1 mps 623 mmHg 90%
    12:00 +22°C° 1.1 mm 1 mps 622 mmHg 91%
    13:00 +22°C° 1.1 mm 1 mps 622 mmHg 93%
    14:00 +21°C° 0.8 mm 1 mps 621 mmHg 94%
    15:00 +21°C° 0.8 mm 1 mps 621 mmHg 95%
    16:00 +20°C° 0.8 mm 1 mps 620 mmHg 96%
    17:00 +19°C° 0.2 mm 1 mps 620 mmHg 97%
    18:00 +17°C° 0.2 mm 0 mps 621 mmHg 97%
    19:00 +16°C° 0.2 mm 0 mps 621 mmHg 98%
    20:00 +16°C° 0.1 mm 0 mps 621 mmHg 98%
    21:00 +16°C° 0.1 mm 0 mps 621 mmHg 97%
    22:00 +16°C° 0.1 mm 0 mps 622 mmHg 97%
    23:00 +16°C° 0.3 mm 0 mps 622 mmHg 97%

    16 December, Monday

    Time Temperature Precipitation Wind Pressure Humidity
    00:00 +15°C° 0.3 mm 0 mps 621 mmHg 97%
    01:00 +16°C° 0.3 mm 1 mps 621 mmHg 97%
    02:00 +16°C° 0.3 mm 1 mps 621 mmHg 96%
    03:00 +16°C° 0.3 mm 1 mps 621 mmHg 96%
    04:00 +16°C° 0.3 mm 1 mps 620 mmHg 96%
    05:00 +18°C° 0 mm 1 mps 621 mmHg 95%
    06:00 +16°C° 0 mm 0 mps 621 mmHg 94%
    07:00 +16°C° 0 mm 0 mps 622 mmHg 93%
    08:00 +20°C° 0.1 mm 1 mps 623 mmHg 84%
    09:00 +22°C° 0.1 mm 1 mps 624 mmHg 75%
    10:00 +24°C° 0.1 mm 2 mps 625 mmHg 67%
    11:00 +24°C° 0.3 mm 2 mps 624 mmHg 70%
    12:00 +24°C° 0.3 mm 2 mps 623 mmHg 73%
    13:00 +24°C° 0.3 mm 2 mps 622 mmHg 76%
    14:00 +23°C° 0.3 mm 2 mps 621 mmHg 78%
    15:00 +23°C° 0.3 mm 1 mps 620 mmHg 80%
    16:00 +22°C° 0.3 mm 1 mps 620 mmHg 82%
    17:00 +21°C° 0.1 mm 1 mps 620 mmHg 87%
    18:00 +17°C° 0.1 mm 0 mps 620 mmHg 92%
    19:00 +16°C° 0.1 mm 0 mps 620 mmHg 97%
    20:00 +16°C° 0 mm 0 mps 620 mmHg 96%
    21:00 +16°C° 0 mm 0 mps 621 mmHg 95%
    22:00 +16°C° 0 mm 0 mps 621 mmHg 95%
    23:00 +16°C° 0 mm 0 mps 621 mmHg 94%
    Show more